Location: Bh?mavarapp?du
(16.7041°N, 80.6518°E)
Time: 06:45:16
(UTC+00:00)

Cosmos 2360 Rocket - Pass Details

Date: 21 April 2021
Orbit: 833 x 845 km, 71.0° (Epoch: 06 May)

Event Time Altitude Azimuth Distance (km) Brightness Sun altitude
Rises 13:06:28 0° 5° (N) 3,388 5.5 -3.7°
Reaches altitude 10° 13:09:32 10° 21° (NNE) 2,450 4.6 -4.4°
Maximum altitude 13:13:39 21° 69° (ENE) 1,810 3.5 -5.3°
Drops below altitude 10° 13:17:44 10° 116° (ESE) 2,441 4.0 -6.3°
Enters shadow 13:18:59 - 124° (SE) 2,798 4.3 -6.6°
